This demonstration page uses our WeatherBlox Daily Observations layout. Learn more.

Left ArrowRight Arrow

41.55636, -103.73856

Hourly Observations for July 30, 2021

Temp ( °F °C ) Dew Point ( °F °C ) Humidity (%) Winds ( mph kmh ) Pressure ( in mb ) Visibility ( mi km ) Precip ( " mm )
12:58 am 00:58 Clear 71 21.9 63 17.4 76 76 SE 15 24 30.03 1017 10 16 N/A
1:58 am 01:58 Clear 69 20.6 63 17.3 81 81 ESE 9 15 30.04 1017 10 16 N/A
2:58 am 02:58 Clear 68 20.1 61 16.3 79 79 SE 12 19 30.02 1017 10 16 N/A
3:58 am 03:58 Mostly Cloudy 69 20.5 61 16 76 76 E 6 9 30.04 1017 10 16 N/A
4:58 am 04:58 Clear with Mist and Fog 66 18.9 64 17.9 94 94 N N/A 30.04 1017 6 10 N/A
5:58 am 05:58 Partly Cloudy with Patchy Fog 65 18.3 62 16.9 92 92 N N/A 30.04 1017 1 1 N/A
6:58 am 06:58 Cloudy 65 18.4 62 16.9 91 91 W 5 7 30.07 1018 10 16 N/A
7:58 am 07:58 Mostly Cloudy with Mist and Fog 68 19.9 65 18.4 91 91 N N/A 30.07 1018 5 8 N/A
8:58 am 08:58 Mostly Cloudy 71 21.7 64 17.9 79 79 WNW 8 13 30.09 1019 10 16 N/A
9:58 am 09:58 Hazy 75 23.7 61 16 62 62 NNW 10 17 30.09 1019 4 6 N/A
10:58 am 10:58 Hazy 78 25.8 60 15.5 53 53 NNE 5 7 30.07 1018 4 6 N/A
11:58 am 11:58 Hazy 82 27.8 61 16 49 49 NNE 13 20 30.06 1018 6 10 N/A
12:58 pm 12:58 Mostly Sunny 83 28.4 62 16.4 48 48 ENE 10 17 30.05 1018 7 11 N/A
1:58 pm 13:58 Hazy 86 29.8 61 15.9 43 43 NE 10 17 30.05 1018 6 10 N/A
2:58 pm 14:58 Hazy 86 29.9 58 14.4 39 39 NE 13 20 30.03 1017 5 8 N/A
3:58 pm 15:58 Hazy 86 30.2 58 14.4 38 38 NE 17 28 30.02 1017 6 10 N/A
4:58 pm 16:58 Sunny 86 29.8 58 14.6 40 40 NE 9 15 30.03 1017 7 11 N/A
5:58 pm 17:58 Sunny 85 29.4 58 14.3 40 40 NNE 9 15 30.03 1017 8 13 N/A
6:58 pm 18:58 Sunny 83 28.1 57 14 42 42 NE 10 17 30.03 1017 10 16 N/A
7:58 pm 19:58 Mostly Sunny 80 26.5 58 14.6 48 48 NNE 9 15 30.05 1018 10 16 N/A
8:58 pm 20:58 Mostly Cloudy 77 25.2 58 14.4 51 51 N 15 24 30.11 1020 8 13 N/A
9:58 pm 21:58 Mostly Cloudy with Heavy Showers 65 18.3 63 17 92 92 ENE 10 17 30.14 1021 3 4 2.37 60.20
10:58 pm 22:58 Mostly Cloudy 65 18.4 62 16.9 91 91 WNW 6 9 30.14 1021 9 14 0.01 0.25
11:58 pm 23:58 Mostly Cloudy 67 19.3 62 16.4 83 83 NNW 9 15 30.15 1021 9 14 0.01 0.25

Powered by AerisWeather